ARIANE 5 R/B, 41863

Orbit data source: Space-Track

ARIANE 5 R/B, 41863 is space debris originally from a launch on Thu, 17 Nov 2016 UTC launched from the French Guiana (FRGUI). Debris objects in space refer to the collection of defunct objects orbiting the Earth. Examples of debris include non-operational satellites, rocket bodies, and fragments generated from explosions, collisions, or faulty payload assembly.

Loading next visibility...
Identifier
41863, 2016-069E
Orbit
Active
Country
Flag of FRFR
Related business
Manufacturer
ADS/Bremen
Mission
Spacecraft
Bus & Motor
EPS+, AESTUS
Mass
3,057 kg wet, 3,057 kg dry
Launch date (UTC)
2016-11-17 (9 years ago)
Launch vehicle
Unknown
Launch site
French Guiana (FRGUI)
Object type
Payload
Rocket body
Debris
Shape & HBR
Cone + Cyl, 2.7 m
Radar Cross Section
28.860 m², Large (>1 m²)

Expand to show TLE details & history
Last TLE update: 2 days ago

TLE from 2 days ago
0 ARIANE 5 R/B
1 41863U 16069E   26125.56610698  .00000026  00000-0  00000+0 0  9998
2 41863  55.4605  98.4643 0003399 345.2836  14.6694  1.73306945 59897
Epoch: 2026-05-05T13:35Z
TLE epoch observation values (Epoch: 2026-05-05T13:35:11.643Z)
Latitude
-0.00004°
Longitude
31.20447°
Altitude
22,889.368 km
Speed
3.691 km/s
True Right ascension
06h 33m 46s
True Declination
0° 00' 00"
Sunlit
Object was in daylight at epoch
Visualization orbit readout
Latitude
Unknown
Longitude
Unknown
Altitude
Unknown
Speed
Unknown
Apparent Right ascension
Unknown
Apparent Declination
Unknown
Sunlit
N/A
Visualization observer readout
Local Sidereal Time
19:59:19
Azimuth
Unknown
Elevation
Unknown
Doppler factor
Unknown
Orbital elements
Apogee altitude
22,908.668 km
Perigee altitude
22,888.765 km
Semi-major axis
29,276.853 km
Eccentricity
0.00034
Inclination
55.4605°
RAAN
98.4643°
Arg. of periapsis
345.2836°
True anomaly
14.67927°
Mean anomaly
14.6694°
Eccentric anomaly
14.67433°
Mean motion
0.43327 °/min
Orbital period
830.89 mins
BSTAR
0
Loading maneuver chart data...
Computing Atmospheric mass density...
Loading historical data...
Loading historical data...
Loading historical data...
Loading historical data...
Loading historical data...
Loading historical data...
Loading historical data...
Other satellites on launch #69 in the year 2016 (2016-11-17 UTC)

Documentation

Showing up to 5 results
|